DELTA 1 DEB, 7155

Orbit data source: Space-Track

DELTA 1 DEB, 7155 is space debris in SSO originally from a launch on Tue, 06 Nov 1973 UTC launched from the Air Force Western Test Range (AFWTR). Debris objects in space refer to the collection of defunct objects orbiting the Earth. Examples of debris include non-operational satellites, rocket bodies, and fragments generated from explosions, collisions, or faulty payload assembly.

Loading next visibility...
Identifier
7155, 1973-086DU
Orbit
SSO
Country
Flag of USUS
Related business
Manufacturer
Unknown
Mission
Spacecraft
Bus & Motor
Unknown
Mass
Unknown
Launch date (UTC)
1973-11-06 (52 years ago)
Launch vehicle
Unknown
Launch site
Air Force Western Test Range (AFWTR)
Object type
Payload
Rocket body
Debris
Shape & HBR
Unknown shape, 0.1 m
Radar Cross Section
Small (<0.1 m²)

Expand to show TLE details & history
Last TLE update: 12 hours ago

TLE from 12 hours ago
0 DELTA 1 DEB
1  7155U 73086DU  26034.24565890  .00000376  00000-0  30623-2 0  9998
2  7155 102.3759 304.7587 0125262  40.7535 128.4592 12.40366441359260
Epoch: 2026-02-03T05:53Z
TLE epoch observation values (Epoch: 2026-02-03T05:53:44.928Z)
Latitude
9.39659°
Longitude
-95.03696°
Altitude
1,569.038 km
Speed
7.056 km/s
True Right ascension
08h 27m 19s
True Declination
9° 20' 49"
Sunlit
Object was in full shadow at epoch
Visualization orbit readout
Latitude
Unknown
Longitude
Unknown
Altitude
Unknown
Speed
Unknown
Apparent Right ascension
Unknown
Apparent Declination
Unknown
Sunlit
N/A
Visualization observer readout
Local Sidereal Time
19:36:34
Azimuth
Unknown
Elevation
Unknown
Doppler factor
Unknown
Orbital elements
Apogee altitude
1,601.363 km
Perigee altitude
1,403.93 km
Semi-major axis
7,880.784 km
Eccentricity
0.01253
Inclination
102.3759°
RAAN
304.7587°
Arg. of periapsis
40.7535°
True anomaly
129.57227°
Mean anomaly
128.4592°
Eccentric anomaly
129.01682°
Mean motion
3.10234 °/min
Orbital period
116.04 mins
BSTAR
0.0030623
Loading maneuver chart data...
Computing Atmospheric mass density...

Documentation

Showing up to 5 results
|